Regional Weather Roundup
Issued by NWS

Home | Current Version | Previous Version | Graphics & Text | Print | Product List | Glossary On
Versions: 1 2 3 4 5 6 7 8 9 10 11 12 13 14 15 16 17 18 19 20 21 22 23 24 25 26 27 28 29 30 31 32 33 34 35 36 37 38 39 40 41 42 43 44 45 46 47 48 49 50
000
ASUS43 KLSX 070307
RWRMO

WEATHER SUMMARY FOR MISSOURI
NATIONAL WEATHER SERVICE SPRINGFIELD MO
1000 PM CDT WED MAY 06 2015

NOTE: "FAIR" INDICATES FEW OR NO CLOUDS BELOW 12,000 FEET WITH NO
       SIGNIFICANT WEATHER AND/OR OBSTRUCTIONS TO VISIBILITY.
       CURRENT SKY AND/OR WEATHER CONDITIONS ARE NOT AVAILABLE FOR
       CHILLICOTHE AND FARMINGTON.

MOZ001>031-035>038-043-044-053-054-070400-
...NORTHERN AND WESTERN MISSOURI...

CITY           SKY/WX    TMP DP  RH WIND       PRES   REMARKS
KANSAS CTY INT PTCLDY    72  57  59 S20G26    29.86R
KANSAS C DTWN  PTCLDY    74  56  53 SE13G21   29.85R
LEE`S SUMMIT   MOCLDY    71  55  56 S12G20    29.89R
ST JOSEPH      MOCLDY    71  58  63 S20G28    29.83R
CHILLICOTHE      N/A     72  59  63 SE9       29.90S
KIRKSVILLE     CLEAR     66  60  81 SE8       29.95S

$$
MOZ066>068-077>081-088>096-101>105-070400-
...SOUTHWEST MISSOURI...

CITY           SKY/WX    TMP DP  RH WIND       PRES   REMARKS
SPRINGFIELD    PTCLDY    70  55  59 SE15      29.95R
JOPLIN         MOCLDY    72  56  57 SE15G25   29.91R

$$
MOZ032>034-039>042-045>050-055>058-069>072-070400-
...CENTRAL MISSOURI...

CITY           SKY/WX    TMP DP  RH WIND       PRES   REMARKS
COLUMBIA       CLEAR     71  55  56 SE10      29.97S
JEFFERSON CITY CLEAR     72  55  55 SE8       29.97S
ROLLA          CLEAR     68  53  58 SE7       30.00S
SEDALIA        FAIR      72  55  55 SE14      29.94R
WHITEMAN AFB   PTCLDY    71  56  58 S10       29.91R
WARRENSBURG    PTCLDY    70  54  56 SE10      29.91R
OSAGE BEACH    CLEAR     72  54  53 SE7       29.97S

$$
MOZ051-052-059>065-070400-
...EAST CENTRAL MISSOURI...

CITY           SKY/WX    TMP DP  RH WIND       PRES   REMARKS
ST LOUIS INTL  PTCLDY    79  52  38 S8        30.03R
SPIRIT OF STL  PTCLDY    74  51  44 SE3       30.01R
ST CHARLES     PTCLDY    71  50  47 SE7       30.01R

$$
MOZ072>076-082>087-097>100-106>115-070400-
...SOUTH CENTRAL AND SOUTHEAST MISSOURI...

CITY           SKY/WX    TMP DP  RH WIND       PRES   REMARKS
CAPE GIRARDEAU CLEAR     68  54  60 S6        30.04R
FARMINGTON     PTCLDY    70  52  52 SE7       30.08S
POPLAR BLUFF   CLEAR     69  51  52 SE7       30.03R
WEST PLAINS    PTCLDY    66  55  67 CALM      30.04R

$$



USA.gov is the U.S. government's official web portal to all federal, state and local government web resources and services.